STARLINK-38008, 69724

Orbit data source: Space-Track

STARLINK-38008, 69724 is a payload satellite owned by SpaceX/Seattle (US) in SSO that was launched on Sun, 28 Jun 2026 UTC via an FALCON 9 launch vehicle from the Air Force Western Test Range (AFWTR). Payload-class satellites include a variety of spacecraft equipped with specific instruments for various scientific and technological missions. These include communications satellites like Starlink; space stations such as the ISS; scientific satellites like the Hubble; Earth observation satellites from companies like Planet Labs, Umbra, and HawkEye 360; GPS; miniature CubeSats for education and research; and military/defense satellites.

Loading next visibility...
Identifier
69724, 2026-147W
Orbit
SSO
Country
Flag of USUS
Related business
Manufacturer
SpaceX/Seattle
Mission
Operational spacecraft
Bus & Motor
STARLINK V2MO, Unknown motor
Mass
575 kg wet, ~530 kg dry
Launch date (UTC)
2026-06-28 (2 weeks ago)
Launch vehicle
FALCON 9
Launch site
Air Force Western Test Range (AFWTR)
Object type
Payload
Rocket body
Debris
Shape & HBR
Unknown shape, 17.7 m
Radar Cross Section
Large (>1 m²)

Expand to show TLE details & history
Last TLE update: 8 hours ago

TLE from 8 hours ago
0 STARLINK-38008
1 69724U 26147W   26193.05236520  .00142105  00000-0  72873-3 0  9995
2 69724  97.2836 229.2928 0001370 117.3677 242.7730 15.80872397  3369
Epoch: 2026-07-12T01:15Z
TLE epoch observation values (Epoch: 2026-07-12T01:15:24.353Z)
Latitude
-0.00009°
Longitude
-79.51543°
Altitude
331.569 km
Speed
7.709 km/s
True Right ascension
15h 17m 10s
True Declination
0° 00' 00"
Sunlit
Object was in full shadow at epoch
Visualization orbit readout
Latitude
Unknown
Longitude
Unknown
Altitude
Unknown
Speed
Unknown
Apparent Right ascension
Unknown
Apparent Declination
Unknown
Sunlit
N/A
Visualization observer readout
Local Sidereal Time
21:47:03
Azimuth
Unknown
Elevation
Unknown
Doppler factor
Unknown
Orbital elements
Apogee altitude
325.771 km
Perigee altitude
323.934 km
Semi-major axis
6,702.989 km
Eccentricity
0.00014
Inclination
97.2836°
RAAN
229.2928°
Arg. of periapsis
117.3677°
True anomaly
242.75904°
Mean anomaly
242.773°
Eccentric anomaly
242.76602°
Mean motion
3.95494 °/min
Orbital period
91.03 mins
BSTAR
0.00072873
Loading maneuver chart data...
Computing Atmospheric mass density...
Loading historical data...
Loading historical data...
Loading historical data...
Loading historical data...
Loading historical data...
Loading historical data...
Loading historical data...

Documentation

Showing up to 5 results
|